Theta_e
348 351 353 352 354 356 355 357 356 355 355 353 354 355 356 355 358 359 362 364 363 363 362 361 360 360 362 360 358 356 355 354 347 352 354 358 358 357 357 357 354 355 356
350 354 352 354 356 354 356 356 355 353 354 356 355 352 354 356 356 357 360 362 361 356 358 361 359 358 361 362 358 358 357 358 352 348 352 353 354 357 357 356 353 353 358
353 350 351 353 354 355 357 357 356 356 354 352 353 353 352 353 354 356 358 361 360 362 361 359 359 359 359 358 358 357 356 356 354 348 347 352 352 354 354 358 357 359 356
351 350 354 355 356 356 358 358 356 357 354 351 348 349 350 353 353 353 355 360 364 362 362 359 360 359 358 358 357 358 357 352 351 348 346 346 349 353 354 351 350 353 351
356 357 358 361 361 361 359 358 358 356 355 353 348 348 347 350 349 351 356 361 361 360 360 359 358 353 346 347 353 356 354 349 347 345 344 345 345 347 348 351 349 349 353
357 357 361 362 361 360 359 359 358 356 355 353 349 349 349 347 340 340 354 362 357 356 356 356 354 348 343 335 338 342 347 351 349 345 344 344 347 346 351 349 347 344 340
358 359 359 362 360 361 360 359 358 357 356 355 353 350 348 349 336 338 346 360 356 357 356 353 348 342 340 343 332 338 337 336 340 349 347 348 348 351 352 348 348 345 343
358 359 360 361 360 361 360 360 360 359 357 356 355 354 355 356 337 338 344 360 356 357 356 353 349 342 341 339 339 339 339 342 346 347 346 345 349 353 352 351 349 348 347
356 358 361 362 361 361 359 360 361 359 358 358 358 357 357 360 333 334 346 358 356 357 354 353 349 343 332 328 339 336 335 336 333 332 332 333 334 336 339 347 342 341 337
357 359 362 363 364 362 364 364 364 361 360 359 358 359 351 362 330 330 346 357 356 353 352 352 334 341 326 326 337 335 331 334 337 341 342 338 338 337 337 346 346 340 335
355 358 362 363 363 365 365 365 364 362 364 361 361 361 361 359 353 327 331 359 355 352 349 347 344 324 320 320 324 335 332 336 333 338 339 339 339 335 338 338 340 340 338
360 359 361 362 359 359 365 364 363 363 361 361 361 361 361 365 341 324 326 334 343 353 351 349 343 319 316 318 323 322 323 328 336 335 335 335 336 335 334 336 335 333 329
359 359 359 361 361 364 362 361 357 361 356 357 356 356 357 360 360 326 323 327 330 353 354 341 323 315 315 319 319 320 321 333 333 332 332 332 332 331 332 332 329 330 328
357 357 357 358 358 360 357 357 354 355 355 355 355 355 356 357 356 353 343 339 330 341 330 334 327 326 324 326 323 323 329 330 330 330 329 329 328 326 326 326 324 325 323
354 354 354 354 354 357 358 356 356 361 355 357 356 356 355 355 355 342 341 349 352 344 340 336 332 331 329 328 327 327 326 327 325 326 325 324 323 323 322 323 320 319 317
353 352 350 350 352 353 354 347 315 319 318 318 323 343 356 329 318 316 314 315 316 315 338 337 335 334 331 330 327 325 325 323 324 323 323 322 320 319 319 320 319 316 315
356 355 350 347 351 352 353 351 348 334 313 312 311 314 319 329 310 309 308 307 308 317 342 339 337 335 333 332 329 326 324 324 326 322 321 320 319 318 316 317 315 314 313
354 332 353 353 354 354 352 352 352 352 351 355 320 318 309 308 305 303 302 311 321 324 342 344 339 336 334 333 330 327 326 324 322 321 321 320 319 316 314 313 313 311 311
351 347 353 355 356 352 357 356 356 355 355 358 337 317 304 299 300 300 305 337 337 336 340 341 339 337 334 333 332 329 328 324 321 321 320 319 318 316 314 312 311 304 305
354 338 346 345 342 354 353 353 353 356 358 357 355 352 323 317 322 319 317 330 336 337 340 340 344 342 337 333 329 329 327 323 322 321 320 319 318 315 313 312 310 309 309
354 353 345 357 353 353 351 352 353 353 352 353 354 352 319 337 338 331 325 327 334 340 340 338 338 335 336 333 330 325 328 326 324 322 320 318 316 313 313 311 309 309 309
357 354 353 351 350 350 350 351 350 351 349 347 348 332 307 338 344 340 336 333 334 338 341 341 338 338 335 326 330 325 326 325 324 322 319 317 314 313 311 309 307 307 307
357 355 354 353 352 341 348 349 347 347 347 347 346 341 324 334 337 339 341 341 340 337 337 336 333 332 338 328 328 326 326 323 323 320 317 314 311 311 309 307 307 306 306
357 357 357 354 349 348 347 347 346 330 343 342 341 341 343 341 339 338 337 335 334 333 331 329 328 327 326 327 326 325 326 321 318 318 312 312 310 306 309 307 306 305 306
358 355 354 352 349 348 347 347 346 344 343 341 344 344 343 341 338 336 335 332 332 330 327 325 324 323 321 319 319 318 307 296 310 306 311 312 311 310 306 306 304 305 306
356 355 354 353 349 348 346 347 346 345 342 342 342 342 342 340 338 336 334 331 329 327 324 322 320 319 318 316 315 303 290 291 299 297 311 311 309 309 306 303 304 304 305
Wind_Speed
17 14 13 13 13 12 10 9 9 8 9 9 8 8 8 7 7 7 8 6 7 6 5 6 6 5 3 2 3 3 5 5 6 3 3 3 4 3 2 3 4 4 2
17 15 15 13 12 13 12 10 10 9 8 9 9 8 8 8 7 7 7 5 5 5 6 6 1 2 3 2 3 4 5 4 4 6 3 3 4 3 3 4 3 2 2
16 16 15 14 14 14 13 11 10 9 10 9 8 8 10 9 8 7 4 4 5 6 2 2 3 3 2 1 4 4 3 3 3 5 4 3 3 4 4 2 3 3 2
16 16 14 15 15 14 12 12 12 11 10 9 9 9 8 9 7 6 5 6 5 2 4 3 2 1 1 2 3 2 2 4 4 5 4 5 3 1 2 2 1 2 3
15 14 15 13 13 12 12 12 11 11 9 9 8 8 9 8 7 7 7 6 6 7 5 4 2 3 5 5 3 1 2 4 4 4 5 4 4 3 2 1 2 3 1
15 15 13 13 13 13 12 13 12 10 10 9 8 9 10 8 10 11 7 7 7 8 7 5 5 5 7 4 2 1 3 4 4 5 4 4 4 4 2 2 2 2 2
14 13 14 13 13 13 13 13 13 13 12 10 10 10 10 10 11 10 11 8 7 7 7 7 5 4 4 3 3 4 5 3 4 6 6 5 4 1 1 2 2 3 3
14 14 14 14 14 13 13 13 13 12 13 11 11 11 10 10 12 12 13 9 8 9 9 8 7 6 4 4 3 2 4 4 2 2 5 3 5 4 4 4 4 4 4
15 15 15 15 14 14 14 14 12 12 12 11 11 12 12 10 13 13 14 10 10 10 8 8 8 7 7 5 3 4 4 3 6 2 3 5 5 5 6 5 5 5 4
16 16 15 15 15 15 14 13 12 11 11 10 11 12 11 11 12 12 12 7 9 8 8 8 7 7 10 8 3 3 3 1 2 5 5 4 3 6 5 2 4 4 2
17 14 14 15 15 14 13 11 12 12 10 12 12 10 11 12 11 16 16 10 10 9 9 8 7 8 8 7 4 3 1 1 4 4 4 3 2 2 3 4 4 4 2
14 15 15 14 13 12 13 11 11 10 10 10 9 8 9 10 10 14 17 14 12 12 11 8 7 12 10 9 7 7 6 5 4 4 3 3 2 1 2 2 4 4 5
16 15 15 14 13 11 13 12 11 11 10 10 9 9 10 9 9 12 19 17 13 11 9 8 14 15 11 7 7 8 7 4 3 4 3 2 1 2 2 3 4 4 4
16 15 14 14 13 13 11 11 11 11 11 10 10 11 9 10 9 8 8 8 6 10 7 7 9 9 6 5 8 7 4 4 4 3 4 3 3 4 3 2 2 2 3
14 13 14 12 14 13 13 11 12 13 13 13 13 12 11 12 13 13 14 13 12 11 10 9 9 8 8 8 7 6 5 6 5 5 5 5 4 4 3 2 1 2 2
14 12 12 12 12 12 11 7 8 7 6 8 5 10 10 3 13 16 16 15 13 21 10 10 11 10 10 9 8 8 7 7 6 5 5 5 5 5 4 3 3 2 2
10 11 11 11 11 11 11 11 9 2 5 3 8 10 10 8 12 18 19 15 19 18 13 11 12 12 12 11 10 9 9 8 7 7 6 6 5 5 5 5 4 3 2
12 11 9 6 5 8 9 11 9 9 9 8 4 4 7 7 12 10 13 13 5 11 13 11 13 12 11 11 11 11 9 9 9 8 8 7 6 6 6 5 5 4 3
13 7 10 9 4 5 7 8 8 7 8 7 4 3 6 8 8 9 18 9 12 12 12 14 13 13 12 11 11 11 12 10 10 9 8 8 8 7 6 6 5 2 2
11 9 5 9 9 12 11 8 7 8 8 7 7 7 7 5 5 7 9 10 9 10 10 12 10 10 10 12 9 10 12 11 11 10 9 8 8 8 7 6 5 5 6
5 8 9 9 10 12 10 7 6 6 7 7 7 6 11 8 7 8 9 10 11 12 12 12 12 11 11 12 11 10 12 11 11 10 9 9 9 8 7 6 5 6 5
7 7 8 9 8 6 6 5 5 5 5 5 4 4 11 6 6 7 8 9 10 11 11 12 12 13 13 12 13 10 12 12 12 11 10 10 9 9 7 7 7 6 5
9 9 8 7 7 8 5 4 4 4 5 5 5 5 5 6 5 6 7 8 9 9 9 10 11 10 11 11 11 11 12 12 11 10 11 11 10 9 8 8 8 7 6
6 7 6 6 5 5 5 5 5 5 5 6 5 6 7 7 7 8 7 6 7 8 8 8 8 12 10 10 10 11 10 9 8 11 13 11 11 10 8 8 8 8 7
3 4 5 5 6 6 5 5 5 6 6 7 7 7 7 7 6 6 5 5 6 7 6 6 5 7 10 11 8 10 11 15 12 12 9 12 13 14 10 8 8 8 9
5 5 5 5 6 6 6 7 7 6 7 6 6 6 6 6 6 6 5 5 6 6 6 6 6 10 9 6 8 12 15 14 11 13 11 10 11 11 10 10 13 8 10
Wind_Direction
196 194 196 197 203 205 204 193 198 186 182 188 192 186 190 185 191 209 226 212 215 229 231 245 253 202 238 222 221 230 237 241 269 297 288 330 294 283 233 238 238 247 197
190 184 190 190 197 202 201 190 189 186 180 191 202 203 202 197 198 214 230 233 227 214 228 224 233 205 219 207 237 243 253 239 281 292 341 275 276 315 306 268 257 254 302
186 188 184 189 192 206 200 189 181 181 181 190 202 209 207 201 205 213 230 240 223 233 228 155 154 184 186 230 257 248 250 244 248 277 295 290 315 333 298 274 341 353 290
185 188 185 186 192 200 199 185 179 180 181 185 200 208 205 198 198 203 216 229 222 268 130 144 164 239 305 253 259 284 287 287 265 269 287 297 299 37 327 327 194 26 1
176 182 186 186 182 186 193 184 178 178 182 181 177 180 186 190 191 200 216 226 187 174 151 150 120 66 67 37 302 328 284 262 277 286 279 280 280 284 301 20 311 335 305
179 186 181 182 179 183 191 181 176 179 177 174 180 179 183 199 184 200 211 209 191 177 151 144 132 149 109 110 82 36 327 282 282 289 287 288 279 264 240 293 285 278 256
182 183 182 184 186 180 188 182 180 181 176 182 184 194 201 212 203 204 196 196 175 173 159 167 178 147 169 152 144 144 127 108 265 284 281 285 288 261 285 250 290 303 322
181 182 184 185 192 180 187 189 183 180 182 185 189 200 204 208 190 186 184 183 176 183 179 181 183 171 172 194 227 261 274 256 257 279 254 284 304 305 291 324 323 299 254
185 187 186 184 186 185 194 192 189 184 185 189 192 198 205 211 190 177 175 180 184 188 180 185 184 180 155 184 231 282 294 273 146 59 51 91 61 17 287 292 267 274 298
188 192 187 183 183 190 193 186 187 191 190 190 199 205 204 214 177 169 190 184 189 189 185 187 197 196 157 173 229 262 275 252 217 181 163 133 86 81 62 308 323 319 38
188 184 187 187 188 190 187 186 184 187 187 195 196 196 202 213 185 184 191 192 196 196 198 192 189 169 154 156 227 206 228 261 150 190 188 176 126 90 83 56 28 340 289
179 183 188 188 191 186 182 182 184 184 190 198 203 206 209 217 189 188 192 215 193 199 202 192 172 162 158 170 200 128 150 201 159 146 168 165 159 110 59 62 77 76 63
177 186 189 185 186 179 181 176 180 185 195 203 207 215 212 210 206 187 192 197 186 210 206 178 148 160 155 166 133 144 181 203 182 169 185 181 176 99 172 164 118 105 103
181 186 182 184 182 181 188 187 192 194 199 203 206 214 213 207 204 189 201 210 198 212 115 142 162 164 186 132 153 172 182 198 211 195 189 164 181 194 182 162 194 207 243
191 185 188 191 186 187 198 194 198 198 195 196 205 210 210 212 207 187 179 189 197 199 165 154 173 193 195 185 186 178 176 176 187 187 194 180 194 200 179 162 173 192 235
184 183 188 191 190 199 192 186 47 17 215 213 213 216 220 233 152 170 185 181 159 146 181 185 190 199 208 206 198 182 186 191 188 194 204 197 192 190 186 177 193 231 239
197 181 181 190 192 198 196 198 188 93 72 180 213 215 221 235 170 177 187 174 161 161 203 202 202 203 203 202 199 197 189 191 179 190 200 202 200 195 182 194 200 214 208
187 170 165 184 224 214 190 198 207 199 198 203 188 212 214 195 171 164 125 126 158 224 215 212 215 207 211 200 196 190 186 175 190 194 198 199 195 198 195 199 204 220 209
199 156 171 123 146 234 235 200 194 189 202 198 124 93 95 80 93 125 160 192 205 206 221 220 215 206 208 205 198 197 183 183 187 192 194 194 195 197 201 205 201 237 209
222 145 132 141 166 233 222 174 176 192 193 194 200 193 143 133 174 175 193 218 216 224 221 231 234 219 207 205 189 207 180 177 184 192 193 193 199 201 200 203 207 205 202
170 144 130 138 166 190 192 174 169 190 192 203 215 199 170 185 194 188 195 207 222 231 229 228 226 210 204 197 186 192 195 180 187 190 190 191 189 195 196 199 210 215 221
158 162 161 159 163 144 168 150 181 188 196 196 185 148 163 198 200 194 197 211 222 232 239 238 227 216 210 187 196 185 189 182 187 185 186 188 188 194 185 189 202 210 208
154 165 163 147 147 141 135 155 181 197 206 213 205 163 179 205 204 212 219 233 245 244 242 240 234 215 210 194 199 178 184 181 180 175 179 175 184 190 185 192 200 202 206
148 145 155 137 132 137 160 176 191 207 222 225 213 214 210 202 207 219 230 245 250 250 231 228 222 211 200 193 187 183 183 166 151 175 163 168 181 180 187 193 201 198 195
152 163 171 157 158 188 183 205 207 210 211 219 219 219 210 206 213 223 233 239 254 259 223 214 206 196 188 177 182 155 142 143 153 158 160 174 182 178 186 192 191 194 197
192 203 196 182 175 193 196 206 209 201 205 222 232 233 235 231 225 221 217 223 238 238 203 192 175 166 154 152 171 136 152 164 153 156 171 174 174 180 185 186 194 194 195